When you browse on this site, cookies collect data to enhance your experience and personalize the content and advertising you see.
Visit our Privacy Policy to learn more. By continuing to use the site, you agree to this use of cookies and data.
  • In Denmark
  • List of Countries
  • For 7 days
  • Water Temperature
  • Weather Map
  • Weather Widgets
  • user-avatar
    Login

    Hourly Weather Hrazdan

    Today, 17 August, Saturday

    Time Temperature Precipitation Wind Pressure Humidity
    00:00 +18°C° 0.1 mm 2 mps 612 mmHg 86%
    01:00 +18°C° 0 mm 2 mps 612 mmHg 86%
    02:00 +17°C° 0 mm 2 mps 612 mmHg 86%
    03:00 +17°C° 0 mm 2 mps 612 mmHg 87%
    04:00 +17°C° 0 mm 2 mps 612 mmHg 86%
    05:00 +17°C° 0 mm 2 mps 612 mmHg 85%
    06:00 +17°C° 0 mm 2 mps 612 mmHg 84%
    07:00 +19°C° 0 mm 3 mps 613 mmHg 78%
    08:00 +21°C° 0 mm 3 mps 613 mmHg 73%
    09:00 +22°C° 0 mm 3 mps 614 mmHg 67%
    10:00 +25°C° 0 mm 3 mps 614 mmHg 62%
    11:00 +26°C° 0 mm 3 mps 614 mmHg 58%
    12:00 +27°C° 0 mm 3 mps 614 mmHg 53%
    13:00 +27°C° 0.1 mm 3 mps 614 mmHg 53%
    14:00 +27°C° 0.1 mm 4 mps 613 mmHg 52%
    15:00 +27°C° 0.1 mm 4 mps 613 mmHg 52%
    16:00 +26°C° 0.4 mm 4 mps 613 mmHg 57%
    17:00 +23°C° 0.4 mm 4 mps 612 mmHg 63%
    18:00 +22°C° 0.4 mm 3 mps 612 mmHg 68%
    19:00 +21°C° 0.1 mm 3 mps 612 mmHg 70%
    20:00 +19°C° 0.1 mm 3 mps 612 mmHg 72%
    21:00 +18°C° 0.1 mm 3 mps 612 mmHg 74%
    22:00 +17°C° 0 mm 3 mps 612 mmHg 72%
    23:00 +17°C° 0 mm 3 mps 612 mmHg 70%

    Tomorrow, 18 August, Sunday

    Time Temperature Precipitation Wind Pressure Humidity
    00:00 +16°C° 0 mm 3 mps 612 mmHg 69%
    01:00 +16°C° 0 mm 3 mps 612 mmHg 68%
    02:00 +16°C° 0 mm 3 mps 612 mmHg 68%
    03:00 +14°C° 0 mm 3 mps 612 mmHg 68%
    04:00 +16°C° 0 mm 3 mps 612 mmHg 68%
    05:00 +16°C° 0 mm 2 mps 612 mmHg 67%
    06:00 +16°C° 0 mm 2 mps 612 mmHg 67%
    07:00 +18°C° 0 mm 2 mps 613 mmHg 62%
    08:00 +20°C° 0 mm 3 mps 614 mmHg 56%
    09:00 +22°C° 0 mm 3 mps 614 mmHg 50%
    10:00 +25°C° 0 mm 3 mps 615 mmHg 47%
    11:00 +26°C° 0 mm 3 mps 615 mmHg 44%
    12:00 +27°C° 0 mm 3 mps 615 mmHg 41%
    13:00 +28°C° 0 mm 4 mps 615 mmHg 41%
    14:00 +28°C° 0 mm 4 mps 615 mmHg 41%
    15:00 +28°C° 0 mm 4 mps 615 mmHg 42%
    16:00 +27°C° 0 mm 4 mps 614 mmHg 47%
    17:00 +25°C° 0 mm 3 mps 614 mmHg 52%
    18:00 +24°C° 0 mm 2 mps 614 mmHg 57%
    19:00 +23°C° 0 mm 2 mps 614 mmHg 56%
    20:00 +20°C° 0 mm 3 mps 614 mmHg 56%
    21:00 +19°C° 0 mm 3 mps 614 mmHg 56%
    22:00 +19°C° 0 mm 3 mps 614 mmHg 54%
    23:00 +18°C° 0 mm 3 mps 614 mmHg 52%

    Day after tomorrow, 19 August, Monday

    Time Temperature Precipitation Wind Pressure Humidity
    00:00 +17°C° 0 mm 3 mps 614 mmHg 50%
    01:00 +17°C° 0 mm 2 mps 614 mmHg 49%
    02:00 +16°C° 0 mm 2 mps 614 mmHg 48%
    03:00 +16°C° 0 mm 2 mps 614 mmHg 48%
    04:00 +16°C° 0 mm 2 mps 614 mmHg 48%
    05:00 +16°C° 0 mm 2 mps 615 mmHg 49%
    06:00 +17°C° 0 mm 2 mps 615 mmHg 49%
    07:00 +19°C° 0 mm 2 mps 616 mmHg 45%
    08:00 +23°C° 0 mm 2 mps 617 mmHg 40%
    09:00 +25°C° 0 mm 2 mps 618 mmHg 36%
    10:00 +26°C° 0 mm 2 mps 618 mmHg 34%
    11:00 +28°C° 0 mm 3 mps 618 mmHg 32%
    12:00 +29°C° 0 mm 3 mps 619 mmHg 29%
    13:00 +29°C° 0 mm 3 mps 619 mmHg 30%
    14:00 +29°C° 0 mm 3 mps 618 mmHg 31%
    15:00 +29°C° 0 mm 3 mps 618 mmHg 32%
    16:00 +28°C° 0 mm 3 mps 618 mmHg 37%
    17:00 +26°C° 0 mm 3 mps 618 mmHg 42%
    18:00 +25°C° 0 mm 3 mps 617 mmHg 47%
    19:00 +22°C° 0 mm 3 mps 617 mmHg 47%
    20:00 +20°C° 0 mm 3 mps 617 mmHg 47%
    21:00 +18°C° 0 mm 2 mps 617 mmHg 47%
    22:00 +18°C° 0 mm 2 mps 617 mmHg 45%
    23:00 +17°C° 0 mm 2 mps 617 mmHg 42%

    20 August, Tuesday

    Time Temperature Precipitation Wind Pressure Humidity
    00:00 +17°C° 0 mm 2 mps 617 mmHg 40%
    01:00 +17°C° 0 mm 2 mps 617 mmHg 39%
    02:00 +16°C° 0 mm 2 mps 617 mmHg 38%
    03:00 +16°C° 0 mm 2 mps 617 mmHg 38%
    04:00 +16°C° 0 mm 2 mps 617 mmHg 40%
    05:00 +16°C° 0 mm 2 mps 617 mmHg 41%
    06:00 +16°C° 0 mm 2 mps 617 mmHg 43%
    07:00 +19°C° 0 mm 2 mps 618 mmHg 39%
    08:00 +21°C° 0 mm 2 mps 619 mmHg 36%
    09:00 +25°C° 0 mm 2 mps 620 mmHg 32%
    10:00 +26°C° 0 mm 2 mps 620 mmHg 30%
    11:00 +27°C° 0 mm 3 mps 620 mmHg 29%
    12:00 +28°C° 0 mm 3 mps 620 mmHg 28%
    13:00 +29°C° 0 mm 3 mps 620 mmHg 28%
    14:00 +29°C° 0 mm 3 mps 620 mmHg 29%
    15:00 +29°C° 0 mm 3 mps 619 mmHg 30%
    16:00 +27°C° 0 mm 3 mps 619 mmHg 35%
    17:00 +26°C° 0 mm 3 mps 618 mmHg 40%
    18:00 +24°C° 0 mm 3 mps 617 mmHg 44%
    19:00 +21°C° 0 mm 3 mps 617 mmHg 45%
    20:00 +20°C° 0 mm 3 mps 617 mmHg 45%
    21:00 +18°C° 0 mm 2 mps 616 mmHg 46%
    22:00 +17°C° 0 mm 2 mps 616 mmHg 45%
    23:00 +17°C° 0 mm 2 mps 616 mmHg 44%

    21 August, Wednesday

    Time Temperature Precipitation Wind Pressure Humidity
    00:00 +17°C° 0 mm 2 mps 616 mmHg 43%
    01:00 +16°C° 0 mm 2 mps 616 mmHg 42%
    02:00 +16°C° 0 mm 2 mps 616 mmHg 42%
    03:00 +16°C° 0 mm 2 mps 616 mmHg 42%
    04:00 +16°C° 0 mm 2 mps 616 mmHg 42%
    05:00 +16°C° 0 mm 2 mps 616 mmHg 43%
    06:00 +16°C° 0 mm 1 mps 616 mmHg 43%
    07:00 +18°C° 0 mm 2 mps 617 mmHg 40%
    08:00 +21°C° 0 mm 2 mps 618 mmHg 36%
    09:00 +24°C° 0 mm 2 mps 619 mmHg 32%
    10:00 +26°C° 0 mm 2 mps 619 mmHg 31%
    11:00 +27°C° 0 mm 2 mps 619 mmHg 30%
    12:00 +28°C° 0 mm 3 mps 619 mmHg 29%
    13:00 +28°C° 0 mm 3 mps 619 mmHg 30%
    14:00 +28°C° 0 mm 3 mps 618 mmHg 31%
    15:00 +29°C° 0 mm 3 mps 618 mmHg 31%
    16:00 +27°C° 0 mm 3 mps 617 mmHg 36%
    17:00 +26°C° 0 mm 3 mps 617 mmHg 42%
    18:00 +24°C° 0 mm 3 mps 616 mmHg 47%
    19:00 +21°C° 0 mm 3 mps 616 mmHg 49%
    20:00 +19°C° 0 mm 2 mps 615 mmHg 51%
    21:00 +17°C° 0 mm 2 mps 615 mmHg 53%
    22:00 +17°C° 0 mm 2 mps 615 mmHg 51%
    23:00 +17°C° 0 mm 2 mps 615 mmHg 49%

    22 August, Thursday

    Time Temperature Precipitation Wind Pressure Humidity
    00:00 +16°C° 0 mm 2 mps 615 mmHg 47%
    01:00 +16°C° 0 mm 2 mps 615 mmHg 47%
    02:00 +16°C° 0 mm 2 mps 615 mmHg 47%
    03:00 +16°C° 0 mm 2 mps 614 mmHg 47%
    04:00 +16°C° 0 mm 2 mps 615 mmHg 48%
    05:00 +16°C° 0 mm 2 mps 615 mmHg 49%
    06:00 +16°C° 0 mm 2 mps 615 mmHg 50%
    07:00 +18°C° 0 mm 2 mps 615 mmHg 46%
    08:00 +21°C° 0 mm 2 mps 616 mmHg 41%
    09:00 +24°C° 0 mm 2 mps 617 mmHg 36%
    10:00 +26°C° 0 mm 2 mps 617 mmHg 35%
    11:00 +27°C° 0 mm 3 mps 617 mmHg 33%
    12:00 +28°C° 0 mm 3 mps 617 mmHg 31%
    13:00 +28°C° 0 mm 3 mps 617 mmHg 31%
    14:00 +28°C° 0 mm 3 mps 616 mmHg 32%
    15:00 +29°C° 0 mm 3 mps 616 mmHg 32%
    16:00 +27°C° 0 mm 3 mps 615 mmHg 37%
    17:00 +25°C° 0 mm 3 mps 615 mmHg 42%
    18:00 +24°C° 0 mm 3 mps 614 mmHg 47%
    19:00 +21°C° 0 mm 3 mps 614 mmHg 49%
    20:00 +19°C° 0 mm 3 mps 614 mmHg 51%
    21:00 +17°C° 0 mm 3 mps 613 mmHg 53%
    22:00 +17°C° 0 mm 3 mps 613 mmHg 52%
    23:00 +17°C° 0 mm 2 mps 613 mmHg 51%
    Show more